Year,Month,Day,Hour,Minute,Value (Times are PST for temperature in C)
2011,04,18,00,00,4.00
2011,04,18,00,01,4.00
2011,04,18,00,02,4.00
2011,04,18,00,03,4.00
2011,04,18,00,04,4.00
2011,04,18,00,05,4.00
2011,04,18,00,06,4.00
2011,04,18,00,07,4.00
2011,04,18,00,08,3.90
2011,04,18,00,09,3.90
2011,04,18,00,10,3.90
2011,04,18,00,11,3.90
2011,04,18,00,12,3.90
2011,04,18,00,13,3.80
2011,04,18,00,14,3.80
2011,04,18,00,15,3.80
2011,04,18,00,16,3.80
2011,04,18,00,17,3.80
2011,04,18,00,18,3.70
2011,04,18,00,19,3.70
2011,04,18,00,20,3.70
2011,04,18,00,21,3.70
2011,04,18,00,22,3.70
2011,04,18,00,23,3.70
2011,04,18,00,24,3.70
2011,04,18,00,25,3.70
2011,04,18,00,26,3.70
2011,04,18,00,27,3.70
2011,04,18,00,28,3.70
2011,04,18,00,29,3.70
2011,04,18,00,30,3.70
2011,04,18,00,31,3.70
2011,04,18,00,32,3.70
2011,04,18,00,33,3.70
2011,04,18,00,34,3.70
2011,04,18,00,35,3.70
2011,04,18,00,36,3.70
2011,04,18,00,37,3.70
2011,04,18,00,38,3.70
2011,04,18,00,39,3.70
2011,04,18,00,40,3.60
2011,04,18,00,41,3.60
2011,04,18,00,42,3.60
2011,04,18,00,43,3.60
2011,04,18,00,44,3.60
2011,04,18,00,45,3.50
2011,04,18,00,46,3.50
2011,04,18,00,47,3.40
2011,04,18,00,48,3.40
2011,04,18,00,49,3.40
2011,04,18,00,50,3.30
2011,04,18,00,51,3.30
2011,04,18,00,52,3.30
2011,04,18,00,53,3.20
2011,04,18,00,54,3.20
2011,04,18,00,55,3.20
2011,04,18,00,56,3.10
2011,04,18,00,57,3.10
2011,04,18,00,58,3.10
2011,04,18,00,59,3.00
2011,04,18,01,00,3.00
2011,04,18,01,01,2.90
2011,04,18,01,02,2.90
2011,04,18,01,03,2.90
2011,04,18,01,04,2.90
2011,04,18,01,05,2.90
2011,04,18,01,06,2.80
2011,04,18,01,07,2.80
2011,04,18,01,08,2.80
2011,04,18,01,09,2.80
2011,04,18,01,10,2.80
2011,04,18,01,11,2.80
2011,04,18,01,12,2.80
2011,04,18,01,13,2.80
2011,04,18,01,14,2.70
2011,04,18,01,15,2.70
2011,04,18,01,16,2.70
2011,04,18,01,17,2.70
2011,04,18,01,18,2.70
2011,04,18,01,19,2.70
2011,04,18,01,20,2.60
2011,04,18,01,21,2.60
2011,04,18,01,22,2.60
2011,04,18,01,23,2.60
2011,04,18,01,24,2.50
2011,04,18,01,25,2.50
2011,04,18,01,26,2.50
2011,04,18,01,27,2.40
2011,04,18,01,28,2.40
2011,04,18,01,29,2.40
2011,04,18,01,30,2.30
2011,04,18,01,31,2.30
2011,04,18,01,32,2.30
2011,04,18,01,33,2.30
2011,04,18,01,34,2.30
2011,04,18,01,35,2.30
2011,04,18,01,36,2.30
2011,04,18,01,37,2.30
2011,04,18,01,38,2.30
2011,04,18,01,39,2.30
2011,04,18,01,40,2.30
2011,04,18,01,41,2.30
2011,04,18,01,42,2.20
2011,04,18,01,43,2.20
2011,04,18,01,44,2.20
2011,04,18,01,45,2.20
2011,04,18,01,46,2.20
2011,04,18,01,47,2.20
2011,04,18,01,48,2.20
2011,04,18,01,49,2.10
2011,04,18,01,50,2.10
2011,04,18,01,51,2.10
2011,04,18,01,52,2.10
2011,04,18,01,53,2.00
2011,04,18,01,54,2.00
2011,04,18,01,55,2.00
2011,04,18,01,56,2.00
2011,04,18,01,57,2.00
2011,04,18,01,58,2.00
2011,04,18,01,59,2.00
2011,04,18,02,00,2.00
2011,04,18,02,01,2.00
2011,04,18,02,02,2.00
2011,04,18,02,03,2.00
2011,04,18,02,04,2.00
2011,04,18,02,05,2.00
2011,04,18,02,06,2.00
2011,04,18,02,07,1.90
2011,04,18,02,08,1.90
2011,04,18,02,09,1.90
2011,04,18,02,10,1.90
2011,04,18,02,11,1.90
2011,04,18,02,12,1.90
2011,04,18,02,13,1.90
2011,04,18,02,14,1.90
2011,04,18,02,15,1.90
2011,04,18,02,16,1.90
2011,04,18,02,17,1.80
2011,04,18,02,18,1.80
2011,04,18,02,19,1.80
2011,04,18,02,20,1.80
2011,04,18,02,21,1.80
2011,04,18,02,22,1.80
2011,04,18,02,23,1.80
2011,04,18,02,24,1.70
2011,04,18,02,25,1.70
2011,04,18,02,26,1.70
2011,04,18,02,27,1.70
2011,04,18,02,28,1.70
2011,04,18,02,29,1.70
2011,04,18,02,30,1.70
2011,04,18,02,31,1.70
2011,04,18,02,32,1.70
2011,04,18,02,33,1.70
2011,04,18,02,34,1.70
2011,04,18,02,35,1.60
2011,04,18,02,36,1.60
2011,04,18,02,37,1.60
2011,04,18,02,38,1.60
2011,04,18,02,39,1.60
2011,04,18,02,40,1.60
2011,04,18,02,41,1.60
2011,04,18,02,42,1.60
2011,04,18,02,43,1.60
2011,04,18,02,44,1.60
2011,04,18,02,45,1.60
2011,04,18,02,46,1.60
2011,04,18,02,47,1.60
2011,04,18,02,48,1.60
2011,04,18,02,49,1.60
2011,04,18,02,50,1.60
2011,04,18,02,51,1.60
2011,04,18,02,52,1.60
2011,04,18,02,53,1.60
2011,04,18,02,54,1.60
2011,04,18,02,55,1.60
2011,04,18,02,56,1.60
2011,04,18,02,57,1.60
2011,04,18,02,58,1.50
2011,04,18,02,59,1.50
2011,04,18,03,00,1.50
2011,04,18,03,01,1.40
2011,04,18,03,02,1.40
2011,04,18,03,03,1.40
2011,04,18,03,04,1.30
2011,04,18,03,05,1.40
2011,04,18,03,06,1.40
2011,04,18,03,07,1.40
2011,04,18,03,08,1.30
2011,04,18,03,09,1.30
2011,04,18,03,10,1.30
2011,04,18,03,11,1.30
2011,04,18,03,12,1.30
2011,04,18,03,13,1.30
2011,04,18,03,14,1.30
2011,04,18,03,15,1.30
2011,04,18,03,16,1.30
2011,04,18,03,17,1.30
2011,04,18,03,18,1.30
2011,04,18,03,19,1.30
2011,04,18,03,20,1.30
2011,04,18,03,21,1.30
2011,04,18,03,22,1.30
2011,04,18,03,23,1.30
2011,04,18,03,24,1.30
2011,04,18,03,25,1.30
2011,04,18,03,26,1.30
2011,04,18,03,27,1.30
2011,04,18,03,28,1.30
2011,04,18,03,29,1.30
2011,04,18,03,30,1.30
2011,04,18,03,31,1.30
2011,04,18,03,32,1.30
2011,04,18,03,33,1.30
2011,04,18,03,34,1.30
2011,04,18,03,35,1.30
2011,04,18,03,36,1.30
2011,04,18,03,37,1.30
2011,04,18,03,38,1.30
2011,04,18,03,39,1.30
2011,04,18,03,40,1.30
2011,04,18,03,41,1.30
2011,04,18,03,42,1.30
2011,04,18,03,43,1.30
2011,04,18,03,44,1.30
2011,04,18,03,45,1.30
2011,04,18,03,46,1.30
2011,04,18,03,47,1.30
2011,04,18,03,48,1.30
2011,04,18,03,49,1.30
2011,04,18,03,50,1.30
2011,04,18,03,51,1.30
2011,04,18,03,52,1.30
2011,04,18,03,53,1.30
2011,04,18,03,54,1.30
2011,04,18,03,55,1.30
2011,04,18,03,56,1.30
2011,04,18,03,57,1.30
2011,04,18,03,58,1.30
2011,04,18,03,59,1.30
2011,04,18,04,00,1.30
2011,04,18,04,01,1.30
2011,04,18,04,02,1.30
2011,04,18,04,03,1.30
2011,04,18,04,04,1.30
2011,04,18,04,05,1.30
2011,04,18,04,06,1.30
2011,04,18,04,07,1.30
2011,04,18,04,08,1.30
2011,04,18,04,09,1.30
2011,04,18,04,10,1.30
2011,04,18,04,11,1.30
2011,04,18,04,12,1.30
2011,04,18,04,13,1.30
2011,04,18,04,14,1.30
2011,04,18,04,15,1.30
2011,04,18,04,16,1.30
2011,04,18,04,17,1.30
2011,04,18,04,18,1.30
2011,04,18,04,19,1.30
2011,04,18,04,20,1.30
2011,04,18,04,21,1.30
2011,04,18,04,22,1.30
2011,04,18,04,23,1.30
2011,04,18,04,24,1.30
2011,04,18,04,25,1.30
2011,04,18,04,26,1.30
2011,04,18,04,27,1.30
2011,04,18,04,28,1.30
2011,04,18,04,29,1.30
2011,04,18,04,30,1.30
2011,04,18,04,31,1.30
2011,04,18,04,32,1.40
2011,04,18,04,33,1.40
2011,04,18,04,34,1.40
2011,04,18,04,35,1.40
2011,04,18,04,36,1.40
2011,04,18,04,37,1.40
2011,04,18,04,38,1.40
2011,04,18,04,39,1.50
2011,04,18,04,40,1.50
2011,04,18,04,41,1.40
2011,04,18,04,42,1.40
2011,04,18,04,43,1.40
2011,04,18,04,44,1.40
2011,04,18,04,45,1.40
2011,04,18,04,46,1.40
2011,04,18,04,47,1.40
2011,04,18,04,48,1.40
2011,04,18,04,49,1.30
2011,04,18,04,50,1.40
2011,04,18,04,51,1.40
2011,04,18,04,52,1.40
2011,04,18,04,53,1.40
2011,04,18,04,54,1.40
2011,04,18,04,55,1.40
2011,04,18,04,56,1.40
2011,04,18,04,57,1.40
2011,04,18,04,58,1.40
2011,04,18,04,59,1.40
2011,04,18,05,00,1.50
2011,04,18,05,01,1.50
2011,04,18,05,02,1.50
2011,04,18,05,03,1.50
2011,04,18,05,04,1.50
2011,04,18,05,05,1.50
2011,04,18,05,06,1.50
2011,04,18,05,07,1.50
2011,04,18,05,08,1.50
2011,04,18,05,09,1.50
2011,04,18,05,10,1.50
2011,04,18,05,11,1.50
2011,04,18,05,12,1.50
2011,04,18,05,13,1.50
2011,04,18,05,14,1.60
2011,04,18,05,15,1.60
2011,04,18,05,16,1.60
2011,04,18,05,17,1.60
2011,04,18,05,18,1.60
2011,04,18,05,19,1.60
2011,04,18,05,20,1.60
2011,04,18,05,21,1.60
2011,04,18,05,22,1.60
2011,04,18,05,23,1.60
2011,04,18,05,24,1.60
2011,04,18,05,25,1.60
2011,04,18,05,26,1.60
2011,04,18,05,27,1.60
2011,04,18,05,28,1.60
2011,04,18,05,29,1.60
2011,04,18,05,30,1.60
2011,04,18,05,31,1.60
2011,04,18,05,32,1.70
2011,04,18,05,33,1.70
2011,04,18,05,34,1.70
2011,04,18,05,35,1.70
2011,04,18,05,36,1.70
2011,04,18,05,37,1.70
2011,04,18,05,38,1.70
2011,04,18,05,39,1.70
2011,04,18,05,40,1.70
2011,04,18,05,41,1.70
2011,04,18,05,42,1.70
2011,04,18,05,43,1.70
2011,04,18,05,44,1.70
2011,04,18,05,45,1.70
2011,04,18,05,46,1.70
2011,04,18,05,47,1.70
2011,04,18,05,48,1.60
2011,04,18,05,49,1.60
2011,04,18,05,50,1.60
2011,04,18,05,51,1.60
2011,04,18,05,52,1.60
2011,04,18,05,53,1.60
2011,04,18,05,54,1.60
2011,04,18,05,55,1.60
2011,04,18,05,56,1.60
2011,04,18,05,57,1.70
2011,04,18,05,58,1.70
2011,04,18,05,59,1.70
2011,04,18,06,00,1.70
2011,04,18,06,01,1.70
2011,04,18,06,02,1.70
2011,04,18,06,03,1.70
2011,04,18,06,04,1.80
2011,04,18,06,05,1.80
2011,04,18,06,06,1.80
2011,04,18,06,07,1.80
2011,04,18,06,08,1.80
2011,04,18,06,09,1.80
2011,04,18,06,10,1.80
2011,04,18,06,11,1.80
2011,04,18,06,12,1.80
2011,04,18,06,13,1.80
2011,04,18,06,14,1.80
2011,04,18,06,15,1.80
2011,04,18,06,16,1.80
2011,04,18,06,17,1.80
2011,04,18,06,18,1.80
2011,04,18,06,19,1.80
2011,04,18,06,20,1.80
2011,04,18,06,21,1.80
2011,04,18,06,22,1.80
2011,04,18,06,23,1.80
2011,04,18,06,24,1.80
2011,04,18,06,25,1.80
2011,04,18,06,26,1.80
2011,04,18,06,27,1.80
2011,04,18,06,28,1.80
2011,04,18,06,29,1.80
2011,04,18,06,30,1.90
2011,04,18,06,31,1.90
2011,04,18,06,32,1.90
2011,04,18,06,33,1.90
2011,04,18,06,34,1.90
2011,04,18,06,35,1.90
2011,04,18,06,36,1.90
2011,04,18,06,37,1.90
2011,04,18,06,38,2.00
2011,04,18,06,39,2.00
2011,04,18,06,40,2.00
2011,04,18,06,41,2.00
2011,04,18,06,42,2.00
2011,04,18,06,43,2.00
2011,04,18,06,44,2.00
2011,04,18,06,45,2.00
2011,04,18,06,46,2.00
2011,04,18,06,47,2.00
2011,04,18,06,48,2.10
2011,04,18,06,49,2.10
2011,04,18,06,50,2.10
2011,04,18,06,51,2.10
2011,04,18,06,52,2.10
2011,04,18,06,53,2.10
2011,04,18,06,54,2.10
2011,04,18,06,55,2.10
2011,04,18,06,56,2.10
2011,04,18,06,57,2.00
2011,04,18,06,58,2.00
2011,04,18,06,59,2.10
2011,04,18,07,00,2.10
2011,04,18,07,01,2.10
2011,04,18,07,02,2.10
2011,04,18,07,03,2.10
2011,04,18,07,04,2.10
2011,04,18,07,05,2.20
2011,04,18,07,06,2.20
2011,04,18,07,07,2.20
2011,04,18,07,08,2.20
2011,04,18,07,09,2.30
2011,04,18,07,10,2.30
2011,04,18,07,11,2.30
2011,04,18,07,12,2.30
2011,04,18,07,13,2.30
2011,04,18,07,14,2.30
2011,04,18,07,15,2.30
2011,04,18,07,16,2.30
2011,04,18,07,17,2.30
2011,04,18,07,18,2.30
2011,04,18,07,19,2.30
2011,04,18,07,20,2.30
2011,04,18,07,21,2.40
2011,04,18,07,22,2.40
2011,04,18,07,23,2.40
2011,04,18,07,24,2.40
2011,04,18,07,25,2.40
2011,04,18,07,26,2.40
2011,04,18,07,27,2.40
2011,04,18,07,28,2.40
2011,04,18,07,29,2.40
2011,04,18,07,30,2.40
2011,04,18,07,31,2.50
2011,04,18,07,32,2.50
2011,04,18,07,33,2.50
2011,04,18,07,34,2.60
2011,04,18,07,35,2.60
2011,04,18,07,36,2.60
2011,04,18,07,37,2.70
2011,04,18,07,38,2.70
2011,04,18,07,39,2.70
2011,04,18,07,40,2.70
2011,04,18,07,41,2.70
2011,04,18,07,42,2.80
2011,04,18,07,43,2.80
2011,04,18,07,44,2.80
2011,04,18,07,45,2.80
2011,04,18,07,46,2.80
2011,04,18,07,47,2.80
2011,04,18,07,48,2.80
2011,04,18,07,49,2.90
2011,04,18,07,50,2.90
2011,04,18,07,51,2.90
2011,04,18,07,52,3.00
2011,04,18,07,53,3.00
2011,04,18,07,54,3.00
2011,04,18,07,55,3.10
2011,04,18,07,56,3.10
2011,04,18,07,57,3.20
2011,04,18,07,58,3.20
2011,04,18,07,59,3.20
2011,04,18,08,00,3.30
2011,04,18,08,01,3.30
2011,04,18,08,02,3.40
2011,04,18,08,03,3.40
2011,04,18,08,04,3.50
2011,04,18,08,05,3.60
2011,04,18,08,06,3.70
2011,04,18,08,07,3.70
2011,04,18,08,08,3.80
2011,04,18,08,09,3.90
2011,04,18,08,10,4.00
2011,04,18,08,11,4.00
2011,04,18,08,12,4.10
2011,04,18,08,13,4.20
2011,04,18,08,14,4.30
2011,04,18,08,15,4.30
2011,04,18,08,16,4.40
2011,04,18,08,17,4.50
2011,04,18,08,18,4.60
2011,04,18,08,19,4.70
2011,04,18,08,20,4.70
2011,04,18,08,21,4.80
2011,04,18,08,22,4.90
2011,04,18,08,23,4.90
2011,04,18,08,24,5.00
2011,04,18,08,25,5.10
2011,04,18,08,26,5.20
2011,04,18,08,27,5.30
2011,04,18,08,28,5.40
2011,04,18,08,29,5.50
2011,04,18,08,30,5.60
2011,04,18,08,31,5.60
2011,04,18,08,32,5.70
2011,04,18,08,33,5.80
2011,04,18,08,34,5.90
2011,04,18,08,35,5.90
2011,04,18,08,36,6.00
2011,04,18,08,37,6.10
2011,04,18,08,38,6.10
2011,04,18,08,39,6.20
2011,04,18,08,40,6.20
2011,04,18,08,41,6.30
2011,04,18,08,42,6.30
2011,04,18,08,43,6.40
2011,04,18,08,44,6.40
2011,04,18,08,45,6.50
2011,04,18,08,46,6.50
2011,04,18,08,47,6.60
2011,04,18,08,48,6.60
2011,04,18,08,49,6.70
2011,04,18,08,50,6.70
2011,04,18,08,51,6.70
2011,04,18,08,52,6.70
2011,04,18,08,53,6.70
2011,04,18,08,54,6.80
2011,04,18,08,55,6.80
2011,04,18,08,56,6.90
2011,04,18,08,57,6.90
2011,04,18,08,58,6.90
2011,04,18,08,59,7.00
2011,04,18,09,00,7.00
2011,04,18,09,01,7.00
2011,04,18,09,02,7.00
2011,04,18,09,03,7.00
2011,04,18,09,04,7.00
2011,04,18,09,05,6.90
2011,04,18,09,06,7.00
2011,04,18,09,07,7.00
2011,04,18,09,08,7.00
2011,04,18,09,09,7.10
2011,04,18,09,10,7.10
2011,04,18,09,11,7.10
2011,04,18,09,12,7.10
2011,04,18,09,13,7.10
2011,04,18,09,14,7.20
2011,04,18,09,15,7.20
2011,04,18,09,16,7.20
2011,04,18,09,17,7.30
2011,04,18,09,18,7.40
2011,04,18,09,19,7.40
2011,04,18,09,20,7.50
2011,04,18,09,21,7.50
2011,04,18,09,22,7.60
2011,04,18,09,23,7.60
2011,04,18,09,24,7.60
2011,04,18,09,25,7.60
2011,04,18,09,26,7.60
2011,04,18,09,27,7.70
2011,04,18,09,28,7.70
2011,04,18,09,29,7.70
2011,04,18,09,30,7.70
2011,04,18,09,31,7.80
2011,04,18,09,32,7.80
2011,04,18,09,33,7.80
2011,04,18,09,34,7.80
2011,04,18,09,35,7.90
2011,04,18,09,36,7.90
2011,04,18,09,37,7.90
2011,04,18,09,38,8.00
2011,04,18,09,39,8.00
2011,04,18,09,40,8.10
2011,04,18,09,41,8.10
2011,04,18,09,42,8.20
2011,04,18,09,43,8.20
2011,04,18,09,44,8.20
2011,04,18,09,45,8.20
2011,04,18,09,46,8.20
2011,04,18,09,47,8.20
2011,04,18,09,48,8.30
2011,04,18,09,49,8.30
2011,04,18,09,50,8.30
2011,04,18,09,51,8.30
2011,04,18,09,52,8.30
2011,04,18,09,53,8.30
2011,04,18,09,54,8.30
2011,04,18,09,55,8.40
2011,04,18,09,56,8.40
2011,04,18,09,57,8.50
2011,04,18,09,58,8.50
2011,04,18,09,59,8.60
2011,04,18,10,00,8.60
2011,04,18,10,01,8.70
2011,04,18,10,02,8.70
2011,04,18,10,03,8.80
2011,04,18,10,04,8.80
2011,04,18,10,05,8.90
2011,04,18,10,06,9.00
2011,04,18,10,07,9.10
2011,04,18,10,08,9.10
2011,04,18,10,09,9.20
2011,04,18,10,10,9.20
2011,04,18,10,11,9.30
2011,04,18,10,12,9.30
2011,04,18,10,13,9.30
2011,04,18,10,14,9.30
2011,04,18,10,15,9.30
2011,04,18,10,16,9.30
2011,04,18,10,17,9.20
2011,04,18,10,18,9.20
2011,04,18,10,19,9.20
2011,04,18,10,20,9.20
2011,04,18,10,21,9.30
2011,04,18,10,22,9.30
2011,04,18,10,23,9.40
2011,04,18,10,24,9.40
2011,04,18,10,25,9.50
2011,04,18,10,26,9.50
2011,04,18,10,27,9.60
2011,04,18,10,28,9.60
2011,04,18,10,29,9.60
2011,04,18,10,30,9.60
2011,04,18,10,31,9.60
2011,04,18,10,32,9.60
2011,04,18,10,33,9.60
2011,04,18,10,34,9.50
2011,04,18,10,35,9.40
2011,04,18,10,36,9.40
2011,04,18,10,37,9.40
2011,04,18,10,38,9.40
2011,04,18,10,39,9.30
2011,04,18,10,40,9.30
2011,04,18,10,41,9.40
2011,04,18,10,42,9.40
2011,04,18,10,43,9.40
2011,04,18,10,44,9.30
2011,04,18,10,45,9.40
2011,04,18,10,46,9.40
2011,04,18,10,47,9.40
2011,04,18,10,48,9.40
2011,04,18,10,49,9.30
2011,04,18,10,50,9.30
2011,04,18,10,51,9.30
2011,04,18,10,52,9.30
2011,04,18,10,53,9.30
2011,04,18,10,54,9.30
2011,04,18,10,55,9.20
2011,04,18,10,56,9.20
2011,04,18,10,57,9.20
2011,04,18,10,58,9.20
2011,04,18,10,59,9.20
2011,04,18,11,00,9.30
2011,04,18,11,01,9.40
2011,04,18,11,02,9.40
2011,04,18,11,03,9.40
2011,04,18,11,04,9.40
2011,04,18,11,05,9.50
2011,04,18,11,06,9.60
2011,04,18,11,07,9.70
2011,04,18,11,08,9.80
2011,04,18,11,09,9.80
2011,04,18,11,10,9.80
2011,04,18,11,11,9.90
2011,04,18,11,12,9.80
2011,04,18,11,13,9.80
2011,04,18,11,14,9.80
2011,04,18,11,15,9.80
2011,04,18,11,16,9.70
2011,04,18,11,17,9.70
2011,04,18,11,18,9.70
2011,04,18,11,19,9.70
2011,04,18,11,20,9.60
2011,04,18,11,21,9.60
2011,04,18,11,22,9.50
2011,04,18,11,23,9.40
2011,04,18,11,24,9.40
2011,04,18,11,25,9.40
2011,04,18,11,26,9.30
2011,04,18,11,27,9.30
2011,04,18,11,28,9.30
2011,04,18,11,29,9.20
2011,04,18,11,30,9.30
2011,04,18,11,31,9.30
2011,04,18,11,32,9.30
2011,04,18,11,33,9.30
2011,04,18,11,34,9.40
2011,04,18,11,35,9.50
2011,04,18,11,36,9.60
2011,04,18,11,37,9.60
2011,04,18,11,38,9.70
2011,04,18,11,39,9.70
2011,04,18,11,40,9.70
2011,04,18,11,41,9.80
2011,04,18,11,42,9.80
2011,04,18,11,43,9.80
2011,04,18,11,44,9.70
2011,04,18,11,45,9.50
2011,04,18,11,46,9.40
2011,04,18,11,47,9.40
2011,04,18,11,48,9.40
2011,04,18,11,49,9.50
2011,04,18,11,50,9.50
2011,04,18,11,51,9.50
2011,04,18,11,52,9.60
2011,04,18,11,53,9.70
2011,04,18,11,54,9.80
2011,04,18,11,55,9.70
2011,04,18,11,56,9.70
2011,04,18,11,57,9.60
2011,04,18,11,58,9.40
2011,04,18,11,59,9.20
2011,04,18,12,00,9.20
2011,04,18,12,01,9.20
2011,04,18,12,02,9.20
2011,04,18,12,03,9.20
2011,04,18,12,04,9.20
2011,04,18,12,05,9.20
2011,04,18,12,06,9.30
2011,04,18,12,07,9.50
2011,04,18,12,08,9.60
2011,04,18,12,09,9.70
2011,04,18,12,10,9.70
2011,04,18,12,11,9.70
2011,04,18,12,12,9.70
2011,04,18,12,13,9.80
2011,04,18,12,14,9.70
2011,04,18,12,15,9.70
2011,04,18,12,16,9.60
2011,04,18,12,17,9.60
2011,04,18,12,18,9.60
2011,04,18,12,19,9.60
2011,04,18,12,20,9.60
2011,04,18,12,21,9.50
2011,04,18,12,22,9.40
2011,04,18,12,23,9.30
2011,04,18,12,24,9.30
2011,04,18,12,25,9.20
2011,04,18,12,26,9.20
2011,04,18,12,27,9.20
2011,04,18,12,28,9.20
2011,04,18,12,29,9.30
2011,04,18,12,30,9.30
2011,04,18,12,31,9.30
2011,04,18,12,32,9.40
2011,04,18,12,33,9.30
2011,04,18,12,34,9.30
2011,04,18,12,35,9.30
2011,04,18,12,36,9.30
2011,04,18,12,37,9.40
2011,04,18,12,38,9.40
2011,04,18,12,39,9.50
2011,04,18,12,40,9.60
2011,04,18,12,41,9.70
2011,04,18,12,42,9.80
2011,04,18,12,43,9.80
2011,04,18,12,44,9.70
2011,04,18,12,45,9.70
2011,04,18,12,46,9.70
2011,04,18,12,47,9.60
2011,04,18,12,48,9.60
2011,04,18,12,49,9.60
2011,04,18,12,50,9.60
2011,04,18,12,51,9.60
2011,04,18,12,52,9.60
2011,04,18,12,53,9.60
2011,04,18,12,54,9.50
2011,04,18,12,55,9.40
2011,04,18,12,56,9.40
2011,04,18,12,57,9.50
2011,04,18,12,58,9.50
2011,04,18,12,59,9.50
2011,04,18,13,00,9.50
2011,04,18,13,01,9.50
2011,04,18,13,02,9.50
2011,04,18,13,03,9.50
2011,04,18,13,04,9.60
2011,04,18,13,05,9.70
2011,04,18,13,06,9.70
2011,04,18,13,07,9.80
2011,04,18,13,08,9.90
2011,04,18,13,09,9.80
2011,04,18,13,10,9.80
2011,04,18,13,11,9.90
2011,04,18,13,12,10.00
2011,04,18,13,13,10.00
2011,04,18,13,14,10.10
2011,04,18,13,15,10.20
2011,04,18,13,16,10.20
2011,04,18,13,17,10.20
2011,04,18,13,18,10.30
2011,04,18,13,19,10.30
2011,04,18,13,20,10.30
2011,04,18,13,21,10.30
2011,04,18,13,22,10.30
2011,04,18,13,23,10.20
2011,04,18,13,24,10.10
2011,04,18,13,25,10.10
2011,04,18,13,26,10.00
2011,04,18,13,27,9.90
2011,04,18,13,28,9.90
2011,04,18,13,29,9.80
2011,04,18,13,30,9.80
2011,04,18,13,31,9.80
2011,04,18,13,32,9.80
2011,04,18,13,33,9.80
2011,04,18,13,34,9.80
2011,04,18,13,35,9.80
2011,04,18,13,36,9.80
2011,04,18,13,37,9.90
2011,04,18,13,38,9.90
2011,04,18,13,39,9.90
2011,04,18,13,40,9.90
2011,04,18,13,41,10.00
2011,04,18,13,42,10.00
2011,04,18,13,43,10.10
2011,04,18,13,44,10.10
2011,04,18,13,45,10.10
2011,04,18,13,46,10.10
2011,04,18,13,47,10.20
2011,04,18,13,48,10.30
2011,04,18,13,49,10.30
2011,04,18,13,50,10.30
2011,04,18,13,51,10.30
2011,04,18,13,52,10.30
2011,04,18,13,53,10.30
2011,04,18,13,54,10.20
2011,04,18,13,55,10.20
2011,04,18,13,56,10.10
2011,04,18,13,57,10.20
2011,04,18,13,58,10.20
2011,04,18,13,59,10.20
2011,04,18,14,00,10.20
2011,04,18,14,01,10.20
2011,04,18,14,02,10.20
2011,04,18,14,03,10.30
2011,04,18,14,04,10.30
2011,04,18,14,05,10.30
2011,04,18,14,06,10.20
2011,04,18,14,07,10.20
2011,04,18,14,08,10.10
2011,04,18,14,09,10.10
2011,04,18,14,10,10.00
2011,04,18,14,11,10.00
2011,04,18,14,12,9.90
2011,04,18,14,13,9.80
2011,04,18,14,14,9.80
2011,04,18,14,15,9.70
2011,04,18,14,16,9.70
2011,04,18,14,17,9.70
2011,04,18,14,18,9.80
2011,04,18,14,19,9.80
2011,04,18,14,20,9.80
2011,04,18,14,21,9.70
2011,04,18,14,22,9.70
2011,04,18,14,23,9.70
2011,04,18,14,24,9.70
2011,04,18,14,25,9.70
2011,04,18,14,26,9.70
2011,04,18,14,27,9.70
2011,04,18,14,28,9.70
2011,04,18,14,29,9.70
2011,04,18,14,30,9.80
2011,04,18,14,31,9.80
2011,04,18,14,32,10.00
2011,04,18,14,33,10.10
2011,04,18,14,34,10.10
2011,04,18,14,35,10.20
2011,04,18,14,36,10.20
2011,04,18,14,37,10.20
2011,04,18,14,38,10.20
2011,04,18,14,39,10.20
2011,04,18,14,40,10.30
2011,04,18,14,41,10.30
2011,04,18,14,42,10.30
2011,04,18,14,43,10.30
2011,04,18,14,44,10.30
2011,04,18,14,45,10.30
2011,04,18,14,46,10.30
2011,04,18,14,47,10.30
2011,04,18,14,48,10.40
2011,04,18,14,49,10.40
2011,04,18,14,50,10.50
2011,04,18,14,51,10.50
2011,04,18,14,52,10.60
2011,04,18,14,53,10.60
2011,04,18,14,54,10.60
2011,04,18,14,55,10.60
2011,04,18,14,56,10.60
2011,04,18,14,57,10.60
2011,04,18,14,58,10.50
2011,04,18,14,59,10.40
2011,04,18,15,00,10.30
2011,04,18,15,01,10.20
2011,04,18,15,02,10.20
2011,04,18,15,03,10.20
2011,04,18,15,04,10.20
2011,04,18,15,05,10.20
2011,04,18,15,06,10.30
2011,04,18,15,07,10.30
2011,04,18,15,08,10.20
2011,04,18,15,09,10.20
2011,04,18,15,10,10.20
2011,04,18,15,11,10.20
2011,04,18,15,12,10.20
2011,04,18,15,13,10.20
2011,04,18,15,14,10.10
2011,04,18,15,15,10.00
2011,04,18,15,16,10.00
2011,04,18,15,17,9.90
2011,04,18,15,18,9.90
2011,04,18,15,19,9.80
2011,04,18,15,20,9.80
2011,04,18,15,21,9.80
2011,04,18,15,22,9.80
2011,04,18,15,23,9.80
2011,04,18,15,24,9.80
2011,04,18,15,25,9.70
2011,04,18,15,26,9.70
2011,04,18,15,27,9.70
2011,04,18,15,28,9.60
2011,04,18,15,29,9.60
2011,04,18,15,30,9.50
2011,04,18,15,31,9.50
2011,04,18,15,32,9.40
2011,04,18,15,33,9.30
2011,04,18,15,34,9.20
2011,04,18,15,35,9.20
2011,04,18,15,36,9.20
2011,04,18,15,37,9.10
2011,04,18,15,38,9.10
2011,04,18,15,39,9.10
2011,04,18,15,40,9.00
2011,04,18,15,41,9.00
2011,04,18,15,42,9.00
2011,04,18,15,43,9.00
2011,04,18,15,44,9.10
2011,04,18,15,45,9.10
2011,04,18,15,46,9.10
2011,04,18,15,47,9.10
2011,04,18,15,48,9.20
2011,04,18,15,49,9.20
2011,04,18,15,50,9.30
2011,04,18,15,51,9.30
2011,04,18,15,52,9.40
2011,04,18,15,53,9.40
2011,04,18,15,54,9.50
2011,04,18,15,55,9.50
2011,04,18,15,56,9.60
2011,04,18,15,57,9.60
2011,04,18,15,58,9.60
2011,04,18,15,59,9.70
2011,04,18,16,00,9.70
2011,04,18,16,01,9.70
2011,04,18,16,02,9.80
2011,04,18,16,03,9.80
2011,04,18,16,04,9.90
2011,04,18,16,05,9.90
2011,04,18,16,06,10.00
2011,04,18,16,07,10.10
2011,04,18,16,08,10.20
2011,04,18,16,09,10.30
2011,04,18,16,10,10.40
2011,04,18,16,11,10.50
2011,04,18,16,12,10.60
2011,04,18,16,13,10.70
2011,04,18,16,14,10.80
2011,04,18,16,15,10.90
2011,04,18,16,16,11.00
2011,04,18,16,17,11.00
2011,04,18,16,18,11.10
2011,04,18,16,19,11.10
2011,04,18,16,20,11.00
2011,04,18,16,21,10.90
2011,04,18,16,22,10.90
2011,04,18,16,23,10.80
2011,04,18,16,24,10.80
2011,04,18,16,25,10.70
2011,04,18,16,26,10.60
2011,04,18,16,27,10.60
2011,04,18,16,28,10.50
2011,04,18,16,29,10.50
2011,04,18,16,30,10.50
2011,04,18,16,31,10.50
2011,04,18,16,32,10.50
2011,04,18,16,33,10.60
2011,04,18,16,34,10.70
2011,04,18,16,35,10.80
2011,04,18,16,36,10.90
2011,04,18,16,37,11.00
2011,04,18,16,38,11.10
2011,04,18,16,39,11.10
2011,04,18,16,40,11.20
2011,04,18,16,41,11.20
2011,04,18,16,42,11.20
2011,04,18,16,43,11.20
2011,04,18,16,44,11.30
2011,04,18,16,45,11.40
2011,04,18,16,46,11.50
2011,04,18,16,47,11.60
2011,04,18,16,48,11.60
2011,04,18,16,49,11.60
2011,04,18,16,50,11.60
2011,04,18,16,51,11.60
2011,04,18,16,52,11.60
2011,04,18,16,53,11.60
2011,04,18,16,54,11.60
2011,04,18,16,55,11.60
2011,04,18,16,56,11.50
2011,04,18,16,57,11.50
2011,04,18,16,58,11.40
2011,04,18,16,59,11.30
2011,04,18,17,00,11.30
2011,04,18,17,01,11.30
2011,04,18,17,02,11.30
2011,04,18,17,03,11.30
2011,04,18,17,04,11.20
2011,04,18,17,05,11.20
2011,04,18,17,06,11.20
2011,04,18,17,07,11.10
2011,04,18,17,08,11.00
2011,04,18,17,09,10.80
2011,04,18,17,10,10.70
2011,04,18,17,11,10.60
2011,04,18,17,12,10.40
2011,04,18,17,13,10.30
2011,04,18,17,14,10.30
2011,04,18,17,15,10.20
2011,04,18,17,16,10.10
2011,04,18,17,17,10.00
2011,04,18,17,18,9.90
2011,04,18,17,19,9.90
2011,04,18,17,20,9.90
2011,04,18,17,21,9.80
2011,04,18,17,22,9.80
2011,04,18,17,23,9.80
2011,04,18,17,24,9.80
2011,04,18,17,25,9.80
2011,04,18,17,26,9.80
2011,04,18,17,27,9.80
2011,04,18,17,28,9.80
2011,04,18,17,29,9.90
2011,04,18,17,30,10.00
2011,04,18,17,31,10.00
2011,04,18,17,32,10.10
2011,04,18,17,33,10.10
2011,04,18,17,34,10.10
2011,04,18,17,35,10.10
2011,04,18,17,36,10.10
2011,04,18,17,37,10.20
2011,04,18,17,38,10.20
2011,04,18,17,39,10.20
2011,04,18,17,40,10.20
2011,04,18,17,41,10.30
2011,04,18,17,42,10.30
2011,04,18,17,43,10.30
2011,04,18,17,44,10.30
2011,04,18,17,45,10.40
2011,04,18,17,46,10.50
2011,04,18,17,47,10.60
2011,04,18,17,48,10.80
2011,04,18,17,49,10.90
2011,04,18,17,50,11.00
2011,04,18,17,51,11.20
2011,04,18,17,52,11.30
2011,04,18,17,53,11.40
2011,04,18,17,54,11.40
2011,04,18,17,55,11.40
2011,04,18,17,56,11.40
2011,04,18,17,57,11.40
2011,04,18,17,58,11.40